EN

Hourly Weather Bolshoe Ramene

Today, 22 October, Thursday

Time Temperature Precipitation Wind Pressure Humidity
00:00 +1°C° 0 mm 1 mps 743 mmHg 96%
01:00 -1°C° 0 mm 2 mps 743 mmHg 96%
02:00 -1°C° 0 mm 2 mps 743 mmHg 96%
03:00 -1°C° 0 mm 2 mps 743 mmHg 96%
04:00 0°C° 0 mm 3 mps 742 mmHg 96%
05:00 0°C° 0 mm 3 mps 742 mmHg 96%
06:00 0°C° 0 mm 3 mps 742 mmHg 95%
07:00 +1°C° 0 mm 3 mps 742 mmHg 95%
08:00 +1°C° 0 mm 3 mps 741 mmHg 94%
09:00 +2°C° 0 mm 3 mps 741 mmHg 93%
10:00 +1°C° 0 mm 4 mps 741 mmHg 91%
11:00 +3°C° 0 mm 4 mps 740 mmHg 89%
12:00 +3°C° 0 mm 4 mps 740 mmHg 90%
13:00 +2°C° 0 mm 5 mps 739 mmHg 90%
14:00 +2°C° 0 mm 5 mps 739 mmHg 90%
15:00 +2°C° 0.5 mm 5 mps 737 mmHg 92%
16:00 +2°C° 0.5 mm 5 mps 736 mmHg 93%
17:00 +2°C° 0.5 mm 5 mps 735 mmHg 94%
18:00 +3°C° 0.9 mm 5 mps 735 mmHg 94%
19:00 +3°C° 0.9 mm 5 mps 734 mmHg 94%
20:00 +3°C° 0.9 mm 5 mps 733 mmHg 95%
21:00 +3°C° 0.8 mm 5 mps 732 mmHg 95%
22:00 +4°C° 0.8 mm 4 mps 731 mmHg 96%
23:00 +5°C° 0.8 mm 4 mps 730 mmHg 96%

Tomorrow, 23 October, Friday

Time Temperature Precipitation Wind Pressure Humidity
00:00 +5°C° 0.6 mm 4 mps 730 mmHg 96%
01:00 +5°C° 0.6 mm 3 mps 730 mmHg 97%
02:00 +5°C° 0.6 mm 3 mps 729 mmHg 97%
03:00 +7°C° 0.7 mm 3 mps 729 mmHg 97%
04:00 +7°C° 0.7 mm 3 mps 729 mmHg 97%
05:00 +8°C° 0.7 mm 3 mps 728 mmHg 97%
06:00 +8°C° 0.4 mm 4 mps 729 mmHg 94%
07:00 +8°C° 0.4 mm 5 mps 729 mmHg 90%
08:00 +9°C° 0.4 mm 5 mps 729 mmHg 86%
09:00 +9°C° 0 mm 5 mps 729 mmHg 85%
10:00 +9°C° 0 mm 5 mps 730 mmHg 83%
11:00 +9°C° 0 mm 5 mps 730 mmHg 81%
12:00 +9°C° 0.1 mm 5 mps 730 mmHg 82%
13:00 +9°C° 0.1 mm 5 mps 730 mmHg 82%
14:00 +9°C° 0.1 mm 5 mps 730 mmHg 82%
15:00 +10°C° 0.1 mm 4 mps 730 mmHg 83%
16:00 +10°C° 0.1 mm 4 mps 730 mmHg 84%
17:00 +8°C° 0.1 mm 4 mps 730 mmHg 85%
18:00 +8°C° 0.1 mm 4 mps 729 mmHg 87%
19:00 +8°C° 0.1 mm 4 mps 729 mmHg 90%
20:00 +8°C° 0.1 mm 4 mps 729 mmHg 92%
21:00 +7°C° 0.4 mm 4 mps 729 mmHg 92%
22:00 +7°C° 0.4 mm 4 mps 729 mmHg 92%
23:00 +7°C° 0.4 mm 4 mps 729 mmHg 92%

Day after tomorrow, 24 October, Saturday

Time Temperature Precipitation Wind Pressure Humidity
00:00 +7°C° 0.1 mm 4 mps 729 mmHg 90%
01:00 +7°C° 0.1 mm 5 mps 730 mmHg 87%
02:00 +7°C° 0.1 mm 5 mps 730 mmHg 85%
03:00 +7°C° 0 mm 4 mps 731 mmHg 85%
04:00 +6°C° 0 mm 4 mps 731 mmHg 85%
05:00 +6°C° 0 mm 4 mps 731 mmHg 84%
06:00 +5°C° 0 mm 4 mps 732 mmHg 85%
07:00 +5°C° 0 mm 3 mps 733 mmHg 86%
08:00 +4°C° 0 mm 3 mps 733 mmHg 87%
09:00 +5°C° 0 mm 3 mps 734 mmHg 83%
10:00 +7°C° 0 mm 3 mps 734 mmHg 80%
11:00 +6°C° 0 mm 4 mps 735 mmHg 76%
12:00 +6°C° 0 mm 4 mps 735 mmHg 75%
13:00 +5°C° 0 mm 4 mps 735 mmHg 73%
14:00 +5°C° 0 mm 4 mps 735 mmHg 72%
15:00 +4°C° 0 mm 3 mps 735 mmHg 76%
16:00 +4°C° 0 mm 2 mps 735 mmHg 81%
17:00 +4°C° 0 mm 1 mps 735 mmHg 85%
18:00 +4°C° 0 mm 1 mps 736 mmHg 88%
19:00 +3°C° 0 mm 1 mps 736 mmHg 90%
20:00 +3°C° 0 mm 1 mps 736 mmHg 92%
21:00 +3°C° 0 mm 1 mps 736 mmHg 93%
22:00 +3°C° 0 mm 1 mps 736 mmHg 94%
23:00 +3°C° 0 mm 1 mps 736 mmHg 95%

, 25 October, Sunday

Time Temperature Precipitation Wind Pressure Humidity
00:00 +3°C° 0 mm 1 mps 736 mmHg 96%
01:00 +3°C° 0 mm 1 mps 736 mmHg 96%
02:00 +3°C° 0 mm 1 mps 736 mmHg 96%
03:00 +4°C° 0.1 mm 1 mps 736 mmHg 96%
04:00 +3°C° 0.1 mm 2 mps 736 mmHg 96%
05:00 +4°C° 0.1 mm 2 mps 735 mmHg 96%
06:00 +4°C° 0.6 mm 2 mps 735 mmHg 97%
07:00 +4°C° 0.6 mm 2 mps 735 mmHg 97%
08:00 +4°C° 0.6 mm 2 mps 735 mmHg 97%
09:00 +6°C° 1 mm 1 mps 736 mmHg 97%
10:00 +6°C° 1 mm 1 mps 736 mmHg 97%
11:00 +6°C° 1 mm 1 mps 737 mmHg 97%
12:00 +5°C° 0 mm 2 mps 737 mmHg 95%
13:00 +6°C° 0 mm 2 mps 738 mmHg 94%
14:00 +5°C° 0 mm 3 mps 738 mmHg 92%
15:00 +4°C° 0 mm 3 mps 739 mmHg 92%
16:00 +4°C° 0 mm 3 mps 740 mmHg 92%
17:00 +3°C° 0 mm 3 mps 740 mmHg 92%
18:00 +3°C° 0 mm 2 mps 741 mmHg 92%
19:00 +2°C° 0 mm 2 mps 742 mmHg 92%
20:00 +2°C° 0 mm 2 mps 742 mmHg 92%
21:00 +1°C° 0 mm 2 mps 743 mmHg 93%
22:00 +1°C° 0 mm 2 mps 743 mmHg 94%
23:00 +2°C° 0 mm 1 mps 744 mmHg 95%

25 October, Sunday

Time Temperature Precipitation Wind Pressure Humidity
00:00 +3°C° 0 mm 1 mps 736 mmHg 96%
01:00 +3°C° 0 mm 1 mps 736 mmHg 96%
02:00 +3°C° 0 mm 1 mps 736 mmHg 96%
03:00 +4°C° 0.1 mm 1 mps 736 mmHg 96%
04:00 +3°C° 0.1 mm 2 mps 736 mmHg 96%
05:00 +4°C° 0.1 mm 2 mps 735 mmHg 96%
06:00 +4°C° 0.6 mm 2 mps 735 mmHg 97%
07:00 +4°C° 0.6 mm 2 mps 735 mmHg 97%
08:00 +4°C° 0.6 mm 2 mps 735 mmHg 97%
09:00 +6°C° 1 mm 1 mps 736 mmHg 97%
10:00 +6°C° 1 mm 1 mps 736 mmHg 97%
11:00 +6°C° 1 mm 1 mps 737 mmHg 97%
12:00 +5°C° 0 mm 2 mps 737 mmHg 95%
13:00 +6°C° 0 mm 2 mps 738 mmHg 94%
14:00 +5°C° 0 mm 3 mps 738 mmHg 92%
15:00 +4°C° 0 mm 3 mps 739 mmHg 92%
16:00 +4°C° 0 mm 3 mps 740 mmHg 92%
17:00 +3°C° 0 mm 3 mps 740 mmHg 92%
18:00 +3°C° 0 mm 2 mps 741 mmHg 92%
19:00 +2°C° 0 mm 2 mps 742 mmHg 92%
20:00 +2°C° 0 mm 2 mps 742 mmHg 92%
21:00 +1°C° 0 mm 2 mps 743 mmHg 93%
22:00 +1°C° 0 mm 2 mps 743 mmHg 94%
23:00 +2°C° 0 mm 1 mps 744 mmHg 95%

26 October, Monday

Time Temperature Precipitation Wind Pressure Humidity
00:00 +1°C° 0 mm 1 mps 744 mmHg 95%
01:00 +1°C° 0 mm 1 mps 745 mmHg 95%
02:00 +1°C° 0 mm 1 mps 745 mmHg 95%
03:00 +1°C° 0 mm 1 mps 745 mmHg 95%
04:00 +1°C° 0 mm 1 mps 746 mmHg 94%
05:00 +1°C° 0 mm 1 mps 746 mmHg 94%
06:00 +2°C° 0 mm 1 mps 746 mmHg 93%
07:00 +3°C° 0 mm 1 mps 746 mmHg 91%
08:00 +2°C° 0 mm 2 mps 747 mmHg 90%
09:00 +3°C° 0 mm 2 mps 747 mmHg 89%
10:00 +4°C° 0 mm 2 mps 747 mmHg 87%
11:00 +5°C° 0 mm 2 mps 748 mmHg 86%
12:00 +6°C° 0 mm 2 mps 748 mmHg 86%
13:00 +6°C° 0 mm 2 mps 748 mmHg 87%
14:00 +6°C° 0 mm 2 mps 748 mmHg 87%
15:00 +6°C° 0 mm 2 mps 748 mmHg 89%
16:00 +5°C° 0 mm 2 mps 748 mmHg 92%
17:00 +4°C° 0 mm 2 mps 748 mmHg 94%
18:00 +4°C° 0 mm 2 mps 748 mmHg 94%
19:00 +4°C° 0 mm 2 mps 749 mmHg 94%
20:00 +4°C° 0 mm 2 mps 749 mmHg 94%
21:00 +4°C° 0 mm 2 mps 749 mmHg 94%
22:00 +3°C° 0 mm 2 mps 749 mmHg 94%
23:00 +3°C° 0 mm 2 mps 749 mmHg 94%

27 October, Tuesday

Time Temperature Precipitation Wind Pressure Humidity
00:00 +3°C° 0 mm 2 mps 749 mmHg 94%
01:00 +3°C° 0 mm 2 mps 749 mmHg 95%
02:00 +3°C° 0 mm 2 mps 749 mmHg 95%
03:00 +3°C° 0 mm 2 mps 749 mmHg 95%
04:00 +3°C° 0 mm 2 mps 749 mmHg 95%
05:00 +1°C° 0 mm 3 mps 749 mmHg 95%
06:00 +2°C° 0 mm 3 mps 749 mmHg 94%
07:00 +2°C° 0 mm 3 mps 749 mmHg 92%
08:00 +2°C° 0 mm 3 mps 749 mmHg 91%
09:00 +3°C° 0 mm 3 mps 749 mmHg 88%
10:00 +4°C° 0 mm 4 mps 748 mmHg 85%
11:00 +5°C° 0 mm 4 mps 748 mmHg 81%
12:00 +5°C° 0 mm 4 mps 748 mmHg 81%
13:00 +5°C° 0 mm 4 mps 748 mmHg 80%
14:00 +5°C° 0 mm 4 mps 747 mmHg 79%
15:00 +5°C° 0 mm 4 mps 747 mmHg 80%
16:00 +5°C° 0 mm 4 mps 747 mmHg 82%
17:00 +4°C° 0 mm 4 mps 747 mmHg 83%
18:00 +5°C° 0 mm 4 mps 746 mmHg 83%
19:00 +5°C° 0 mm 4 mps 746 mmHg 83%
20:00 +5°C° 0 mm 4 mps 746 mmHg 83%
21:00 +5°C° 0.3 mm 4 mps 746 mmHg 85%
22:00 +5°C° 0.3 mm 4 mps 745 mmHg 88%
23:00 +5°C° 0.3 mm 4 mps 745 mmHg 90%
Show more